weather.gov     
National Weather Service

Terminal Aerodrome Forecast
NWS Homepage
This page is being discontinued on March 12, 2014.
The same data is available at this site. Please update your bookmarks.
Thank you, and we apologize for the inconvenience.
Please send an email to SR-SRH.Webmaster@noaa.gov with any concerns.


Current Version
Previous Version:    01  02  03  04  05  06  07  08  09  10  11  12  13  14  15  16  17  18  19  20  21  22  23  24  
[Printable]
057
FTUS44 KTSA 301600 AAA
TAFFSM
TAF AMD
KFSM 301651Z 3017/3112 10004KT P6SM -RA FEW016 BKN022 OVC030
      TEMPO 3017/3020 3SM -RA
     FM302000 16006KT 3SM -RA OVC025
      TEMPO 3020/3024 2SM -TSRA BR BKN025CB
     FM310600 04004KT 2SM RA OVC015=


U.S. Dept. of Commerce
NOAA National Weather Service
1325 East West Highway
Silver Spring, MD 20910
E-mail: w-nws.webmaster@noaa.gov
Page last modified: May 16, 2007
NATIONAL WEATHER SERVICE: for Safety, for Work, for Fun - FOR LIFE